Location: Unspecified
(41.1637°N, 24.2901°E)
Time: 19:18:50
(UTC+01:00)

ARIANE 6 FM1 Upper Stage - Pass Details

Date: 26 January 2026
Orbit: 522 x 609 km, 62.0° (Epoch: 11 February)

Event Time Altitude Azimuth Distance (km) Brightness Sun altitude
Rises 18:34:11 0° 266° (W) 2,700 7.6 -23.0°
Reaches altitude 10° 18:37:22 10° 292° (WNW) 1,794 6.1 -23.6°
Maximum altitude 18:39:29 14° 324° (NW) 1,555 5.3 -24.0°
Enters shadow 18:41:13 11° 351° (N) 1,708 5.2 -24.3°
